This demonstration page uses our WeatherBlox Daily Observations layout. Learn more.

Hourly Observations for November 4, 2016

Temp ( °F °C ) Dew Point ( °F °C ) Humidity (%) Winds ( mph kmh ) Pressure ( in mb ) Visibility ( mi km ) Precip ( " mm )
12:15 am 00:15 Clear 61 16 54 12 77 77 N 9 15 30.03 1017 10 16.09344 0 0
12:35 am 00:35 Clear 61 16 52 11 72 72 NNW 12 19 30.03 1017 10 16.09344 0 0
12:55 am 00:55 Clear 61 16 52 11 72 72 NNW 14 22 30.03 1017 10 16.09344 0 0
1:15 am 01:15 Clear 59 15 52 11 77 77 NNW 7 11 30.06 1018 10 16.09344 0 0
1:35 am 01:35 Clear 59 15 52 11 77 77 NNW 9 15 30.06 1018 10 16.09344 0 0
1:55 am 01:55 Clear 57 14 52 11 82 82 NW 7 11 30.06 1018 10 16.09344 0 0
2:15 am 02:15 Clear 57 14 50 10 77 77 NNW 5 7 30.06 1018 10 16.09344 0 0
2:35 am 02:35 Clear 57 14 50 10 77 77 NNW 3 6 30.09 1019 10 16.09344 0 0
2:55 am 02:55 Clear 57 14 50 10 77 77 NNW 8 13 30.09 1019 10 16.09344 0 0
3:15 am 03:15 Clear 57 14 50 10 77 77 NNW 8 13 30.09 1019 10 16.09344 0 0
3:35 am 03:35 Clear 55 13 50 10 82 82 NW 10 17 30.09 1019 10 16.09344 0 0
3:55 am 03:55 Clear 55 13 48 9 77 77 NNW 8 13 30.09 1019 10 16.09344 0 0
4:15 am 04:15 Clear 55 13 48 9 77 77 NW 8 13 30.12 1020 10 16.09344 0 0
4:35 am 04:35 Clear 55 13 48 9 77 77 NW 7 11 30.12 1020 10 16.09344 0 0
4:55 am 04:55 Clear 55 13 48 9 77 77 NW 8 13 30.12 1020 10 16.09344 0 0
5:15 am 05:15 Clear 55 13 48 9 77 77 NW 7 11 30.12 1020 10 16.09344 0 0
5:35 am 05:35 Clear 54 12 48 9 82 82 NW 15 24 30.12 1020 10 16.09344 0 0
5:55 am 05:55 Clear 54 12 46 8 77 77 NNW 8 13 30.15 1021 10 16.09344 0 0
6:15 am 06:15 Clear 52 11 46 8 82 82 NNW 9 15 30.15 1021 10 16.09344 0 0
6:35 am 06:35 Clear 52 11 46 8 82 82 NW 10 17 30.15 1021 10 16.09344 0 0
6:55 am 06:55 Clear 52 11 46 8 82 82 NW 6 9 30.21 1023 10 16.09344 0 0
7:15 am 07:15 Clear 52 11 46 8 82 82 NW 3 6 30.21 1023 10 16.09344 0 0
7:35 am 07:35 Clear 52 11 46 8 82 82 NW 9 15 30.24 1024 10 16.09344 0 0
7:55 am 07:55 Sunny 52 11 46 8 82 82 NW 8 13 30.24 1024 10 16.09344 0 0
8:15 am 08:15 Sunny 52 11 46 8 82 82 NW 7 11 30.24 1024 10 16.09344 0 0
8:35 am 08:35 Sunny 54 12 46 8 77 77 NNW 6 9 30.21 1023 10 16.09344 0 0
8:55 am 08:55 Sunny 54 12 46 8 77 77 NNW 10 17 30.24 1024 10 16.09344 0 0
9:15 am 09:15 Sunny 55 13 46 8 72 72 NNW 13 20 30.24 1024 10 16.09344 0 0
9:35 am 09:35 Sunny 55 13 46 8 72 72 NNW 12 19 30.24 1024 10 16.09344 0 0
9:55 am 09:55 Sunny 55 13 46 8 72 72 N 10 17 30.24 1024 10 16.09344 0 0
10:15 am 10:15 Partly Cloudy 55 13 45 7 67 67 N 13 20 30.24 1024 10 16.09344 0 0
10:35 am 10:35 Partly Cloudy 57 14 45 7 63 63 N 13 20 30.24 1024 10 16.09344 0 0
10:55 am 10:55 Partly Cloudy 59 15 45 7 59 59 N 13 20 30.24 1024 10 16.09344 0 0
11:15 am 11:15 Partly Cloudy 59 15 45 7 59 59 N 13 20 30.24 1024 10 16.09344 0 0
11:35 am 11:35 Partly Cloudy 59 15 43 6 55 55 N 10 17 30.24 1024 10 16.09344 0 0
11:55 am 11:55 Partly Cloudy 59 15 43 6 55 55 NNW 10 17 30.24 1024 10 16.09344 0 0
12:15 pm 12:15 Partly Cloudy 59 15 43 6 55 55 NNW 16 26 30.24 1024 10 16.09344 0 0
12:35 pm 12:35 Sunny 61 16 43 6 52 52 N 14 22 30.24 1024 10 16.09344 0 0
12:55 pm 12:55 Sunny 61 16 43 6 52 52 N 10 17 30.24 1024 10 16.09344 0 0
1:15 pm 13:15 Partly Cloudy 61 16 41 5 48 48 N 14 22 30.24 1024 10 16.09344 0 0
1:35 pm 13:35 Partly Cloudy 61 16 41 5 48 48 NNW 14 22 30.24 1024 10 16.09344 0 0
1:55 pm 13:55 Partly Cloudy 63 17 41 5 45 45 N 13 20 30.24 1024 10 16.09344 0 0
2:15 pm 14:15 Sunny 61 16 39 4 45 45 NNW 15 24 30.21 1023 10 16.09344 0 0
2:35 pm 14:35 Sunny 61 16 37 3 42 42 N 9 15 30.24 1024 10 16.09344 0 0
2:55 pm 14:55 Sunny 63 17 37 3 39 39 N 9 15 30.24 1024 10 16.09344 0 0
3:15 pm 15:15 Sunny 63 17 37 3 39 39 N 12 19 30.24 1024 10 16.09344 0 0
3:35 pm 15:35 Sunny 63 17 37 3 39 39 N 13 20 30.24 1024 10 16.09344 0 0
3:55 pm 15:55 Sunny 63 17 37 3 39 39 N 9 15 30.24 1024 10 16.09344 0 0
4:15 pm 16:15 Sunny 63 17 36 2 37 37 N 10 17 30.24 1024 10 16.09344 0 0
4:35 pm 16:35 Sunny 61 16 37 3 42 42 NNW 13 20 30.24 1024 10 16.09344 0 0
4:55 pm 16:55 Sunny 61 16 36 2 39 39 NNW 14 22 30.24 1024 10 16.09344 0 0
5:15 pm 17:15 Sunny 61 16 36 2 39 39 NNW 14 22 30.24 1024 10 16.09344 0 0
5:35 pm 17:35 Sunny 61 16 36 2 39 39 NNW 12 19 30.27 1025 10 16.09344 0 0
5:55 pm 17:55 Sunny 59 15 36 2 42 42 N 7 11 30.27 1025 10 16.09344 0 0
6:15 pm 18:15 Clear 59 15 36 2 42 42 N 5 7 30.27 1025 10 16.09344 0 0
6:35 pm 18:35 Clear 55 13 36 2 47 47 N 5 7 30.27 1025 10 16.09344 0 0
6:55 pm 18:55 Clear 55 13 36 2 47 47 Calm 30.27 1025 10 16.09344 0 0
7:15 pm 19:15 Clear 54 12 36 2 51 51 NNW 3 6 30.3 1026 10 16.09344 0 0
7:35 pm 19:35 Clear 54 12 36 2 51 51 Calm 30.3 1026 10 16.09344 0 0
7:55 pm 19:55 Clear 50 10 37 3 62 62 Calm 30.3 1026 10 16.09344 0 0
8:15 pm 20:15 Clear 50 10 37 3 62 62 NNW 5 7 30.3 1026 10 16.09344 0 0
8:35 pm 20:35 Clear 52 11 36 2 54 54 NW 6 9 30.3 1026 10 16.09344 0 0
8:55 pm 20:55 Clear 52 11 36 2 54 54 NNW 6 9 30.33 1027 10 16.09344 0 0
9:15 pm 21:15 Clear 50 10 36 2 58 58 NW 5 7 30.33 1027 10 16.09344 0 0
9:35 pm 21:35 Clear 46 8 37 3 71 71 NW 6 9 30.33 1027 10 16.09344 0 0
9:55 pm 21:55 Clear 50 10 36 2 58 58 NNW 5 7 30.33 1027 10 16.09344 0 0
10:15 pm 22:15 Clear 50 10 36 2 58 58 NW 6 9 30.33 1027 10 16.09344 0 0
10:35 pm 22:35 Clear 50 10 36 2 58 58 NNW 6 9 30.33 1027 10 16.09344 0 0
10:55 pm 22:55 Clear 50 10 36 2 58 58 NNW 5 7 30.33 1027 10 16.09344 0 0
11:15 pm 23:15 Clear 50 10 36 2 58 58 N 3 6 30.33 1027 10 16.09344 0 0
11:35 pm 23:35 Clear 50 10 37 3 62 62 N 5 7 30.33 1027 10 16.09344 0 0
11:55 pm 23:55 Clear 48 9 37 3 66 66 NNW 3 6 30.33 1027 10 16.09344 0 0

Powered by AerisWeather